Flag for Canada Weather past 2 weeks in Rothesay, New Brunswick, Canada

Now
59 °F

Cool.


Feels Like: 59 °F
Forecast: 54 / 70 °F
Wind: 5 mph from Northeast

Location: Saint John

Current Time: Aug 23, 2014 at 4:45:49 AM

Latest Report: Aug 23, 2014 at 4:00 AM


Visibility: 15 mi

Pressure: 30.12 "Hg

Humidity: 94%

Dew point: 57 °F

Location of RothesayLocation

Historic Weather in Rothesay — Graph

°F

Rothesay temperature yesterday

Maximum temperature yesterday: 68 °F (at 12:00 PM)
Minimum temperature yesterday: 54 °F (at 5:00 AM)
Average temperature yesterday: 61 °F

Past Weeks' High & Low Weather Summary

 TemperatureHumidityPressure
High81 °F (Aug 20, 3:00 PM)100% (Aug 8, 3:00 AM)30.20 "Hg (Aug 8, 3:00 AM)
Low46 °F (Aug 12, 4:00 AM)44% (Aug 12, 5:00 PM)29.65 "Hg (Aug 18, 4:00 PM)
Average62 °F85%29.98 "Hg
* Reported Aug 8 3:00 AM — Aug 23 3:00 AM, Rothesay, Weather by CustomWeather, © 2014

Note: Actual official high and low records may vary slightly from our data, if they occured in-between our weather recording intervals... More about our weather records

Advertising

Rothesay weather history for previous 24 hours

 ConditionsComfort  
Time TempWeatherWind HumidityBarometerVisibility
3:00 AM
Aug 23
59 °FOvercast.8 mph94%30.13 "Hg15 mi
2:00 AM59 °FOvercast.6 mph94%30.14 "Hg15 mi
1:00 AM59 °FPassing clouds.8 mph94%30.14 "Hg15 mi
12:00 AM57 °FPassing clouds.3 mph94%30.15 "Hg15 mi
11:00 PM
Aug 22
59 °FOvercast.5 mph88%30.15 "Hg15 mi
10:00 PM61 °FOvercast.6 mph88%30.16 "Hg15 mi
9:00 PM63 °FOvercast.8 mph83%30.15 "Hg15 mi
8:00 PM64 °FBroken clouds.6 mph83%30.15 "Hg15 mi
7:00 PM66 °FBroken clouds.6 mph73%30.14 "Hg15 mi
6:00 PM66 °FPartly sunny.6 mph73%30.14 "Hg15 mi
5:00 PM68 °FMostly cloudy.9 mph73%30.14 "Hg15 mi
4:00 PM68 °FMostly cloudy.7 mph73%30.14 "Hg15 mi
3:00 PM68 °FMostly cloudy.6 mph64%30.13 "Hg15 mi
2:00 PM66 °FScattered showers. Mostly cloudy.8 mph78%30.16 "Hg15 mi
1:00 PM66 °FCloudy.9 mph78%30.17 "Hg15 mi
12:00 PM68 °FCloudy.9 mph73%30.17 "Hg15 mi
11:00 AM64 °FMostly cloudy.12 mph78%30.19 "Hg15 mi
10:00 AM64 °FMostly cloudy.10 mph78%30.18 "Hg15 mi
9:00 AM63 °FBroken clouds.9 mph88%30.18 "Hg15 mi
8:00 AM57 °FPartly sunny.8 mph100%30.18 "Hg15 mi
7:46 AM57 °FMostly cloudy.7 mph100%30.17 "Hg15 mi
7:00 AM55 °FPassing clouds.8 mph100%30.17 "Hg15 mi
6:00 AM54 °FPassing clouds.3 mph100%30.16 "Hg15 mi
5:00 AM54 °FPassing clouds.No wind100%30.15 "Hg15 mi
4:00 AM55 °FPassing clouds.No wind100%30.14 "Hg15 mi
Weather by CustomWeather, © 2014

See weather overviewHow to use our weather pages